QPF
0.00 0.00 0.00 0.00 0.00 0.00 0.00 0.00 0.00 0.00 0.00 0.00 0.00 0.00 0.00 0.00 0.00 0.00 0.00 0.00 0.00 0.00 0.00 0.00 0.00 0.02 0.06 0.00 0.00 0.00 0.00 0.00 0.00 0.00 0.00 0.00 0.00 0.02 0.03 0.00 0.00 0.00 0.00
0.00 0.00 0.00 0.00 0.00 0.00 0.00 0.00 0.00 0.00 0.00 0.00 0.00 0.00 0.00 0.00 0.00 0.00 0.00 0.00 0.00 0.00 0.00 0.00 0.00 0.00 0.02 0.00 0.00 0.00 0.00 0.00 0.00 0.00 0.00 0.00 0.00 0.02 0.06 0.00 0.00 0.00 0.00
0.00 0.00 0.00 0.00 0.00 0.00 0.00 0.00 0.00 0.00 0.00 0.00 0.00 0.00 0.00 0.00 0.00 0.00 0.00 0.00 0.00 0.00 0.00 0.00 0.00 0.00 0.00 0.00 0.00 0.00 0.00 0.00 0.00 0.00 0.00 0.01 0.00 0.00 0.02 0.00 0.00 0.00 0.00
0.00 0.00 0.00 0.00 0.00 0.00 0.00 0.00 0.00 0.00 0.00 0.00 0.00 0.00 0.00 0.00 0.00 0.00 0.00 0.00 0.00 0.00 0.00 0.00 0.00 0.00 0.00 0.00 0.00 0.00 0.00 0.00 0.00 0.00 0.00 0.02 0.00 0.00 0.01 0.00 0.00 0.00 0.00
0.00 0.00 0.00 0.00 0.00 0.00 0.00 0.00 0.00 0.00 0.00 0.00 0.00 0.00 0.00 0.00 0.00 0.00 0.00 0.00 0.00 0.00 0.00 0.00 0.00 0.00 0.00 0.00 0.00 0.00 0.00 0.00 0.00 0.01 0.00 0.00 0.00 0.00 0.00 0.00 0.00 0.00 0.00
0.00 0.00 0.00 0.00 0.00 0.00 0.00 0.00 0.00 0.00 0.00 0.00 0.00 0.00 0.00 0.00 0.00 0.00 0.00 0.00 0.00 0.00 0.00 0.00 0.00 0.00 0.00 0.00 0.00 0.00 0.00 0.00 0.00 0.02 0.00 0.00 0.00 0.00 0.00 0.00 0.00 0.00 0.00
0.00 0.00 0.00 0.00 0.00 0.00 0.00 0.00 0.00 0.00 0.00 0.00 0.00 0.00 0.00 0.00 0.00 0.00 0.00 0.00 0.00 0.00 0.00 0.00 0.00 0.00 0.00 0.00 0.00 0.00 0.00 0.00 0.00 0.00 0.01 0.00 0.00 0.00 0.00 0.00 0.00 0.00 0.00
0.00 0.00 0.00 0.00 0.00 0.00 0.00 0.00 0.00 0.00 0.00 0.00 0.00 0.00 0.00 0.00 0.00 0.00 0.00 0.00 0.00 0.00 0.00 0.00 0.00 0.00 0.00 0.00 0.00 0.00 0.00 0.00 0.00 0.00 0.03 0.00 0.00 0.00 0.00 0.00 0.00 0.00 0.00
0.00 0.00 0.00 0.00 0.00 0.00 0.00 0.00 0.00 0.00 0.00 0.00 0.00 0.00 0.00 0.00 0.00 0.00 0.00 0.00 0.00 0.00 0.00 0.00 0.00 0.00 0.00 0.00 0.00 0.00 0.00 0.00 0.00 0.00 0.03 0.04 0.00 0.00 0.00 0.00 0.00 0.00 0.00
0.00 0.00 0.00 0.00 0.00 0.00 0.00 0.00 0.00 0.00 0.00 0.00 0.00 0.00 0.00 0.00 0.00 0.00 0.00 0.00 0.00 0.00 0.00 0.00 0.00 0.00 0.00 0.00 0.00 0.00 0.00 0.00 0.00 0.00 0.00 0.03 0.00 0.00 0.00 0.00 0.00 0.00 0.00
0.00 0.00 0.00 0.00 0.00 0.00 0.02 0.02 0.01 0.00 0.00 0.00 0.00 0.00 0.00 0.00 0.00 0.00 0.01 0.00 0.00 0.00 0.00 0.00 0.00 0.00 0.00 0.00 0.00 0.00 0.00 0.00 0.00 0.00 0.00 0.00 0.00 0.00 0.00 0.00 0.00 0.00 0.00
0.00 0.00 0.00 0.04 0.06 0.03 0.00 0.02 0.04 0.00 0.00 0.00 0.00 0.00 0.00 0.00 0.00 0.00 0.01 0.00 0.00 0.00 0.00 0.00 0.00 0.00 0.00 0.00 0.00 0.00 0.00 0.00 0.00 0.00 0.00 0.00 0.00 0.00 0.00 0.01 0.00 0.00 0.00
0.00 0.00 0.00 0.01 0.03 0.01 0.00 0.00 0.00 0.00 0.00 0.00 0.01 0.01 0.00 0.00 0.00 0.00 0.00 0.00 0.00 0.00 0.00 0.00 0.00 0.00 0.00 0.00 0.00 0.00 0.00 0.00 0.00 0.00 0.00 0.00 0.00 0.00 0.00 0.00 0.00 0.01 0.00
0.00 0.00 0.00 0.00 0.00 0.00 0.00 0.00 0.01 0.02 0.02 0.02 0.02 0.02 0.00 0.01 0.00 0.02 0.01 0.00 0.00 0.00 0.00 0.00 0.00 0.00 0.00 0.00 0.00 0.00 0.00 0.00 0.00 0.00 0.00 0.00 0.00 0.00 0.00 0.00 0.00 0.00 0.02
0.00 0.00 0.00 0.00 0.00 0.00 0.00 0.01 0.03 0.09 0.07 0.08 0.03 0.03 0.04 0.05 0.03 0.08 0.03 0.02 0.03 0.00 0.00 0.00 0.00 0.00 0.00 0.00 0.00 0.00 0.00 0.00 0.00 0.00 0.00 0.00 0.00 0.00 0.00 0.00 0.00 0.00 0.00
0.00 0.00 0.00 0.00 0.00 0.00 0.00 0.02 0.05 0.05 0.10 0.09 0.04 0.03 0.02 0.03 0.05 0.08 0.05 0.02 0.02 0.04 0.00 0.00 0.00 0.00 0.00 0.00 0.00 0.00 0.00 0.00 0.00 0.00 0.00 0.00 0.00 0.00 0.00 0.00 0.00 0.00 0.00
0.00 0.00 0.00 0.00 0.00 0.00 0.00 0.00 0.01 0.01 0.06 0.07 0.01 0.00 0.00 0.00 0.01 0.05 0.05 0.04 0.12 0.10 0.02 0.00 0.00 0.00 0.01 0.00 0.00 0.00 0.00 0.00 0.00 0.00 0.00 0.00 0.00 0.00 0.00 0.00 0.00 0.00 0.00
0.00 0.00 0.00 0.00 0.00 0.00 0.00 0.00 0.03 0.01 0.01 0.01 0.00 0.00 0.00 0.00 0.00 0.00 0.00 0.07 0.12 0.10 0.06 0.03 0.03 0.03 0.05 0.00 0.00 0.00 0.00 0.00 0.00 0.00 0.00 0.00 0.00 0.00 0.00 0.00 0.00 0.00 0.00
0.00 0.01 0.01 0.00 0.00 0.00 0.00 0.01 0.06 0.05 0.03 0.02 0.00 0.00 0.00 0.00 0.00 0.00 0.00 0.01 0.01 0.01 0.03 0.00 0.01 0.00 0.00 0.00 0.00 0.00 0.00 0.00 0.00 0.00 0.00 0.00 0.00 0.00 0.00 0.00 0.00 0.00 0.00
0.00 0.01 0.04 0.04 0.03 0.06 0.00 0.05 0.03 0.05 0.08 0.01 0.00 0.00 0.00 0.02 0.02 0.03 0.03 0.03 0.01 0.00 0.01 0.00 0.00 0.00 0.01 0.00 0.00 0.00 0.00 0.00 0.00 0.01 0.00 0.00 0.00 0.00 0.00 0.00 0.00 0.00 0.00
0.00 0.00 0.05 0.06 0.07 0.06 0.05 0.07 0.09 0.04 0.01 0.00 0.00 0.00 0.07 0.10 0.08 0.12 0.10 0.11 0.02 0.00 0.00 0.02 0.01 0.00 0.01 0.01 0.01 0.00 0.00 0.00 0.00 0.00 0.01 0.01 0.00 0.00 0.00 0.00 0.00 0.00 0.00
0.00 0.00 0.00 0.01 0.04 0.06 0.09 0.05 0.07 0.08 0.02 0.01 0.02 0.00 0.01 0.02 0.04 0.03 0.01 0.00 0.00 0.00 0.00 0.00 0.00 0.00 0.00 0.00 0.00 0.00 0.00 0.00 0.00 0.01 0.01 0.01 0.00 0.00 0.00 0.00 0.00 0.00 0.00
0.00 0.00 0.00 0.01 0.02 0.05 0.03 0.03 0.05 0.08 0.05 0.02 0.00 0.00 0.00 0.00 0.01 0.02 0.00 0.00 0.00 0.00 0.00 0.00 0.00 0.00 0.00 0.00 0.00 0.00 0.01 0.01 0.01 0.02 0.02 0.01 0.00 0.00 0.00 0.00 0.00 0.00 0.00
0.00 0.00 0.00 0.02 0.03 0.01 0.01 0.06 0.14 0.10 0.01 0.01 0.01 0.00 0.00 0.00 0.00 0.00 0.00 0.00 0.00 0.00 0.00 0.00 0.00 0.00 0.00 0.00 0.00 0.00 0.00 0.00 0.01 0.02 0.05 0.06 0.04 0.06 0.10 0.12 0.13 0.05 0.03
0.00 0.00 0.00 0.00 0.00 0.01 0.05 0.12 0.14 0.11 0.10 0.06 0.05 0.02 0.01 0.00 0.00 0.00 0.00 0.00 0.00 0.00 0.01 0.03 0.03 0.02 0.01 0.01 0.00 0.00 0.00 0.01 0.02 0.05 0.09 0.11 0.13 0.16 0.11 0.07 0.04 0.03 0.04
0.01 0.01 0.01 0.02 0.03 0.04 0.05 0.07 0.05 0.02 0.01 0.01 0.02 0.02 0.01 0.00 0.00 0.00 0.00 0.00 0.00 0.01 0.01 0.02 0.02 0.02 0.00 0.00 0.00 0.00 0.00 0.02 0.02 0.04 0.02 0.02 0.02 0.02 0.01 0.00 0.00 0.00 0.00
MSLP
1019.07 1019.17 1019.16 1019.12 1019.04 1018.97 1018.76 1018.61 1018.62 1018.44 1018.34 1018.17 1018.01 1018.01 1017.85 1017.72 1017.57 1017.55 1017.56 1018.01 1018.05 1017.86 1017.90 1018.11 1018.35 1018.15 1018.23 1018.03 1017.66 1017.46 1017.36 1017.34 1017.32 1017.27 1017.20 1017.43 1017.51 1017.49 1017.51 1017.66 1017.79 1017.90 1017.75
1019.23 1019.11 1019.12 1019.02 1018.96 1019.01 1018.84 1018.79 1018.61 1018.38 1018.14 1018.06 1017.90 1017.86 1017.71 1017.67 1017.74 1017.65 1017.66 1017.90 1018.05 1017.96 1017.99 1018.23 1018.29 1018.10 1018.16 1017.79 1017.50 1017.49 1017.41 1017.42 1017.42 1017.43 1017.35 1017.54 1017.65 1017.65 1017.59 1017.66 1017.73 1017.65 1017.79
1019.36 1019.52 1019.37 1019.16 1019.08 1019.23 1019.15 1018.82 1018.66 1018.43 1018.25 1018.11 1018.08 1017.83 1017.90 1018.09 1018.10 1018.22 1018.06 1017.96 1017.83 1018.19 1018.22 1018.20 1018.22 1018.20 1018.10 1017.70 1017.45 1017.43 1017.46 1017.66 1017.55 1017.49 1017.55 1017.72 1017.68 1017.73 1017.67 1017.65 1017.80 1017.90 1017.99
1019.49 1019.63 1019.44 1019.26 1019.41 1019.28 1019.17 1018.88 1018.66 1018.50 1018.51 1018.42 1018.25 1018.16 1018.09 1017.98 1018.25 1018.15 1017.94 1018.13 1018.02 1017.90 1018.08 1018.14 1018.08 1018.23 1018.06 1017.77 1017.37 1017.44 1017.51 1017.65 1017.69 1017.50 1017.59 1017.80 1017.81 1017.99 1018.05 1017.95 1017.93 1017.91 1017.79
1019.58 1019.65 1019.49 1019.59 1019.64 1019.44 1019.15 1019.05 1018.89 1018.88 1018.69 1018.49 1018.30 1018.37 1018.26 1018.05 1018.05 1017.97 1018.07 1018.04 1017.99 1018.09 1017.89 1017.84 1018.00 1018.17 1018.02 1017.69 1017.45 1017.49 1017.47 1017.50 1017.53 1017.48 1017.68 1017.90 1017.86 1017.96 1018.08 1018.16 1018.14 1018.07 1017.90
1019.48 1019.60 1019.60 1019.72 1019.63 1019.27 1019.34 1019.30 1019.31 1019.22 1019.12 1018.90 1018.38 1018.17 1018.19 1018.17 1018.03 1018.03 1018.00 1017.85 1017.99 1018.07 1017.75 1017.77 1017.62 1017.49 1017.93 1017.79 1017.51 1017.54 1017.45 1017.57 1017.57 1017.40 1017.61 1017.90 1017.99 1018.09 1018.16 1018.20 1018.20 1018.13 1018.05
1019.37 1019.59 1019.59 1019.62 1019.73 1019.54 1019.54 1019.59 1019.45 1019.41 1019.13 1019.23 1018.63 1018.04 1017.84 1017.95 1017.92 1017.80 1017.88 1017.74 1017.71 1017.65 1017.75 1017.80 1017.78 1017.49 1017.31 1017.68 1017.55 1017.61 1017.64 1017.59 1017.55 1017.55 1017.68 1017.90 1017.99 1018.17 1018.24 1018.37 1018.41 1018.32 1018.19
1019.29 1019.46 1019.69 1019.65 1019.70 1019.67 1019.73 1019.66 1019.67 1019.50 1019.43 1019.42 1018.82 1018.45 1017.67 1017.51 1017.48 1017.55 1017.82 1017.93 1017.64 1017.42 1017.42 1017.53 1017.73 1017.72 1017.51 1017.32 1017.58 1017.59 1017.69 1017.79 1017.61 1017.48 1017.52 1017.73 1017.91 1018.06 1018.19 1018.30 1018.34 1018.38 1018.38
1019.09 1019.35 1019.59 1019.73 1019.69 1019.72 1019.65 1019.67 1019.79 1019.78 1019.26 1019.41 1019.50 1019.08 1018.24 1017.87 1018.00 1017.70 1017.71 1017.73 1017.63 1017.40 1017.18 1017.30 1017.53 1017.67 1017.69 1017.52 1017.30 1017.36 1017.85 1017.85 1017.76 1017.52 1017.40 1017.61 1017.86 1017.99 1018.08 1018.26 1018.41 1018.42 1018.34
1018.98 1019.18 1019.42 1019.73 1019.85 1019.77 1019.87 1019.68 1019.62 1019.77 1019.61 1019.22 1019.32 1019.44 1019.48 1019.38 1018.64 1017.60 1017.69 1017.63 1017.54 1017.27 1017.21 1017.00 1017.10 1017.55 1017.79 1017.55 1017.81 1018.00 1018.01 1018.03 1018.00 1017.85 1017.71 1017.65 1017.67 1017.75 1017.89 1017.95 1018.13 1018.36 1018.43
1018.84 1019.05 1019.32 1019.51 1019.77 1019.69 1019.87 1019.89 1019.61 1019.61 1019.59 1019.42 1019.28 1019.30 1019.38 1019.29 1019.35 1018.73 1017.57 1017.39 1017.27 1017.43 1017.26 1017.13 1016.99 1017.28 1017.67 1017.65 1017.56 1017.96 1018.23 1018.28 1018.27 1018.29 1018.15 1018.03 1017.95 1017.69 1017.66 1017.75 1017.94 1018.13 1018.35
1018.53 1018.93 1019.14 1019.35 1019.57 1019.62 1019.65 1019.20 1019.40 1019.52 1019.53 1019.57 1019.48 1019.41 1019.11 1018.96 1018.84 1018.71 1018.16 1017.72 1017.37 1017.17 1017.34 1017.29 1017.25 1017.33 1017.49 1017.49 1017.86 1018.22 1018.31 1018.38 1018.42 1018.40 1018.29 1018.14 1018.08 1017.97 1017.78 1017.54 1017.47 1017.76 1018.10
1018.13 1018.39 1018.75 1019.08 1019.05 1019.30 1019.33 1019.25 1019.29 1019.28 1019.33 1019.31 1019.41 1019.13 1019.19 1019.09 1018.98 1018.83 1018.55 1017.96 1017.64 1017.25 1017.10 1017.20 1017.27 1017.16 1017.41 1017.51 1017.72 1018.15 1018.49 1018.58 1018.55 1018.55 1018.47 1018.22 1018.03 1017.87 1017.70 1017.56 1017.38 1017.32 1017.54
1017.73 1017.93 1018.25 1018.50 1018.73 1018.93 1018.95 1018.99 1019.02 1019.12 1019.24 1019.27 1019.22 1019.25 1019.00 1018.93 1018.93 1018.84 1018.58 1018.17 1017.63 1017.32 1017.16 1017.15 1017.13 1016.99 1017.32 1017.58 1018.01 1018.21 1018.15 1018.76 1018.75 1018.77 1018.70 1018.52 1018.32 1018.05 1017.73 1017.30 1017.02 1017.17 1017.27
1017.69 1017.77 1017.93 1018.16 1018.26 1018.43 1018.63 1018.72 1018.79 1018.91 1019.00 1019.01 1019.04 1019.05 1019.04 1018.90 1018.80 1018.85 1018.73 1018.29 1018.30 1017.53 1017.03 1016.89 1016.97 1017.22 1017.29 1017.52 1017.86 1017.78 1018.10 1018.93 1018.94 1018.94 1018.85 1018.67 1018.48 1018.33 1018.03 1017.55 1017.10 1017.17 1017.23
1017.53 1017.64 1017.78 1017.91 1017.98 1018.02 1018.19 1018.40 1018.61 1018.60 1018.69 1018.67 1018.67 1018.71 1018.65 1018.63 1018.53 1018.66 1018.52 1018.41 1018.24 1018.24 1017.41 1017.26 1017.09 1017.27 1017.25 1017.35 1017.84 1017.81 1018.15 1018.65 1018.96 1019.00 1018.96 1018.92 1018.76 1018.66 1018.47 1018.21 1017.96 1017.82 1017.81
1017.36 1017.48 1017.67 1017.80 1017.92 1018.01 1018.20 1018.38 1018.45 1018.40 1018.33 1018.43 1018.40 1018.41 1018.31 1018.44 1018.13 1018.07 1018.11 1018.00 1018.16 1018.22 1017.86 1017.02 1017.39 1017.31 1017.40 1017.40 1017.70 1018.07 1018.28 1018.28 1018.55 1019.14 1019.10 1019.11 1019.04 1018.98 1018.85 1018.74 1018.62 1018.51 1018.42
1017.10 1017.18 1017.42 1017.58 1017.66 1017.77 1018.03 1018.24 1018.19 1018.04 1018.14 1018.06 1018.11 1018.11 1018.04 1017.97 1018.11 1018.05 1017.87 1018.03 1018.02 1018.04 1018.01 1017.41 1017.36 1017.26 1017.38 1017.48 1017.48 1017.93 1017.96 1018.18 1018.31 1019.32 1019.26 1019.29 1019.27 1019.26 1019.21 1019.20 1019.24 1019.15 1019.00
1016.69 1016.87 1017.14 1017.29 1017.33 1017.46 1017.64 1017.73 1017.65 1017.73 1017.75 1017.66 1017.78 1017.79 1017.77 1017.80 1017.78 1017.75 1017.91 1017.79 1017.59 1017.65 1017.66 1017.49 1017.15 1017.02 1017.16 1017.58 1017.61 1017.78 1017.88 1018.04 1018.06 1019.04 1019.15 1019.30 1019.45 1019.43 1019.45 1019.51 1019.57 1019.64 1019.65
1016.10 1016.39 1016.67 1016.77 1016.88 1017.12 1017.26 1017.34 1017.32 1017.42 1017.44 1017.44 1017.59 1017.64 1017.61 1017.62 1017.69 1017.65 1017.72 1017.89 1017.71 1017.65 1017.48 1017.42 1017.06 1016.90 1016.94 1017.19 1017.56 1017.28 1017.28 1017.68 1017.54 1017.95 1018.93 1018.97 1019.22 1019.54 1019.65 1019.83 1019.83 1019.88 1019.94
1015.58 1015.85 1016.16 1016.49 1016.78 1017.04 1016.98 1017.00 1017.01 1017.17 1017.22 1017.26 1017.31 1017.38 1017.41 1017.69 1017.94 1017.87 1017.91 1017.81 1017.77 1017.58 1017.33 1017.41 1017.16 1016.93 1016.76 1017.08 1017.31 1017.22 1017.46 1017.44 1017.60 1017.63 1017.97 1018.22 1018.49 1018.93 1019.69 1019.84 1020.03 1020.27 1020.32
1015.05 1015.44 1015.77 1015.96 1016.27 1016.52 1016.71 1016.98 1017.14 1016.92 1017.00 1016.99 1016.96 1017.05 1017.32 1017.73 1017.97 1018.13 1018.17 1018.25 1018.35 1018.01 1017.77 1017.44 1017.09 1017.16 1017.39 1017.58 1017.51 1017.52 1017.70 1017.77 1017.43 1017.61 1017.96 1018.24 1018.85 1019.35 1019.95 1020.39 1020.81 1020.72 1020.66
1014.43 1014.78 1015.15 1015.46 1015.79 1016.23 1016.70 1016.78 1016.87 1016.78 1016.81 1016.90 1017.02 1017.11 1017.23 1017.80 1018.03 1018.09 1018.40 1018.47 1018.60 1018.61 1018.48 1018.11 1017.99 1018.50 1018.38 1018.49 1018.46 1017.93 1017.88 1017.97 1018.19 1018.87 1018.83 1019.11 1019.81 1020.45 1020.78 1021.36 1021.37 1021.20 1021.13
1014.02 1014.22 1014.62 1015.01 1015.50 1016.40 1016.83 1017.06 1017.19 1016.91 1017.03 1017.40 1017.55 1017.73 1017.85 1018.05 1018.24 1018.25 1018.12 1018.67 1018.92 1019.12 1018.83 1018.55 1018.92 1019.32 1019.43 1018.94 1018.71 1018.66 1018.52 1018.88 1019.19 1019.44 1019.35 1019.64 1020.32 1020.87 1021.25 1021.54 1021.66 1021.58 1021.36
1013.77 1014.29 1014.34 1015.00 1015.76 1016.68 1017.03 1017.18 1017.28 1017.23 1017.68 1018.04 1018.15 1018.32 1018.19 1018.26 1018.38 1018.15 1018.15 1018.72 1019.02 1019.46 1019.92 1019.90 1019.82 1019.99 1019.95 1019.60 1019.12 1018.59 1018.60 1018.53 1019.20 1019.70 1019.87 1019.94 1020.70 1021.18 1021.61 1021.72 1021.83 1022.02 1021.85
1013.89 1014.45 1015.06 1015.38 1015.94 1016.57 1016.92 1017.25 1017.37 1017.47 1018.09 1018.45 1018.61 1018.65 1018.73 1018.65 1018.64 1018.43 1018.51 1018.88 1019.22 1019.64 1019.87 1020.10 1020.12 1019.98 1019.96 1019.84 1019.71 1019.70 1019.65 1019.23 1019.33 1019.83 1020.37 1020.23 1020.78 1021.05 1021.21 1021.26 1021.59 1021.62 1021.50
Thickness
5749 5750 5752 5754 5757 5760 5763 5765 5766 5768 5769 5770 5771 5771 5772 5772 5771 5771 5768 5763 5761 5761 5758 5754 5751 5750 5749 5747 5746 5745 5742 5740 5737 5729 5722 5711 5704 5699 5701 5701 5703 5703 5707
5748 5751 5753 5756 5759 5761 5764 5766 5768 5770 5771 5770 5772 5773 5772 5770 5769 5768 5766 5763 5763 5761 5760 5756 5753 5753 5750 5751 5751 5747 5745 5742 5738 5731 5724 5712 5705 5703 5703 5704 5705 5707 5710
5749 5750 5753 5756 5759 5761 5763 5766 5768 5770 5771 5772 5772 5773 5770 5766 5765 5762 5763 5763 5762 5760 5760 5760 5757 5756 5753 5755 5755 5751 5747 5743 5740 5733 5727 5715 5711 5708 5709 5709 5709 5711 5714
5750 5751 5754 5757 5759 5760 5762 5766 5769 5770 5770 5771 5770 5771 5769 5769 5765 5765 5765 5761 5761 5762 5762 5764 5761 5757 5756 5757 5758 5753 5749 5747 5743 5739 5732 5722 5717 5714 5713 5714 5714 5715 5719
5750 5752 5755 5755 5758 5760 5763 5765 5767 5768 5768 5771 5772 5770 5770 5769 5767 5766 5765 5765 5764 5764 5765 5766 5764 5760 5760 5760 5758 5755 5754 5752 5748 5745 5737 5729 5726 5723 5722 5720 5721 5722 5724
5753 5754 5755 5756 5759 5761 5763 5764 5764 5765 5765 5766 5770 5772 5771 5769 5768 5767 5766 5768 5768 5767 5767 5766 5765 5765 5762 5760 5759 5758 5759 5755 5752 5751 5744 5738 5735 5731 5730 5729 5728 5729 5731
5755 5755 5757 5758 5758 5761 5761 5761 5763 5762 5765 5765 5767 5772 5773 5772 5770 5771 5768 5770 5772 5773 5769 5766 5765 5765 5765 5762 5762 5761 5761 5760 5757 5755 5749 5745 5742 5739 5737 5735 5734 5735 5736
5756 5756 5757 5758 5759 5760 5760 5761 5760 5760 5762 5764 5764 5765 5764 5771 5775 5776 5772 5770 5773 5775 5773 5769 5766 5764 5763 5765 5764 5766 5765 5762 5761 5761 5757 5753 5749 5747 5745 5743 5742 5741 5742
5756 5757 5758 5757 5758 5759 5760 5761 5759 5759 5761 5763 5763 5761 5760 5757 5763 5774 5772 5773 5774 5776 5776 5773 5768 5765 5764 5766 5768 5769 5765 5764 5764 5765 5764 5759 5756 5753 5752 5749 5747 5746 5746
5756 5757 5757 5756 5756 5756 5758 5760 5761 5760 5760 5761 5763 5763 5761 5758 5757 5762 5772 5774 5776 5777 5777 5777 5775 5769 5767 5768 5768 5768 5767 5764 5764 5764 5763 5763 5762 5758 5757 5757 5754 5751 5750
5757 5756 5755 5755 5754 5756 5756 5757 5761 5762 5762 5762 5763 5762 5761 5762 5760 5759 5762 5770 5779 5778 5779 5779 5779 5775 5771 5771 5772 5770 5768 5767 5766 5765 5764 5763 5762 5763 5761 5760 5757 5755 5752
5759 5756 5756 5756 5755 5756 5756 5762 5763 5763 5763 5763 5764 5764 5764 5763 5762 5762 5763 5768 5771 5778 5779 5779 5779 5776 5774 5774 5772 5770 5769 5767 5767 5766 5766 5765 5764 5763 5764 5764 5764 5760 5756
5763 5762 5759 5758 5760 5758 5758 5760 5762 5764 5765 5766 5765 5767 5767 5767 5768 5768 5766 5768 5768 5777 5778 5780 5780 5779 5776 5775 5774 5771 5769 5767 5767 5766 5765 5766 5767 5766 5766 5766 5766 5765 5762
5765 5762 5761 5760 5761 5760 5761 5762 5765 5766 5766 5768 5767 5768 5770 5771 5771 5769 5768 5767 5766 5771 5775 5773 5781 5781 5778 5775 5773 5772 5769 5766 5765 5764 5763 5763 5763 5765 5766 5769 5769 5766 5763
5763 5763 5762 5762 5762 5762 5762 5764 5768 5769 5769 5769 5769 5770 5769 5772 5772 5771 5771 5773 5766 5762 5767 5777 5775 5779 5778 5776 5773 5772 5768 5764 5762 5761 5760 5761 5761 5761 5762 5764 5767 5765 5763
5763 5763 5764 5764 5765 5765 5764 5765 5767 5770 5770 5771 5772 5771 5771 5773 5774 5772 5772 5773 5772 5765 5765 5775 5778 5779 5777 5775 5772 5770 5767 5763 5761 5759 5759 5757 5757 5756 5756 5757 5758 5757 5756
5763 5763 5763 5764 5764 5765 5765 5765 5767 5770 5769 5769 5771 5771 5772 5773 5775 5776 5775 5776 5771 5769 5764 5776 5776 5777 5775 5774 5770 5766 5762 5761 5759 5755 5754 5753 5752 5751 5751 5751 5750 5749 5748
5764 5764 5764 5764 5765 5765 5765 5764 5765 5769 5769 5769 5770 5771 5772 5775 5772 5773 5775 5772 5770 5770 5765 5764 5770 5771 5770 5769 5766 5763 5761 5758 5755 5750 5749 5747 5746 5745 5743 5742 5740 5740 5740
5764 5764 5764 5764 5765 5766 5766 5767 5768 5769 5770 5771 5771 5772 5773 5774 5772 5773 5771 5771 5772 5771 5768 5766 5766 5771 5767 5763 5761 5759 5757 5755 5752 5746 5744 5742 5739 5737 5736 5734 5732 5731 5729
5765 5765 5765 5766 5767 5767 5768 5768 5769 5768 5769 5770 5770 5770 5772 5772 5770 5771 5769 5766 5767 5765 5766 5764 5765 5766 5765 5763 5758 5757 5755 5752 5751 5745 5739 5736 5733 5729 5727 5724 5723 5721 5719
5768 5768 5766 5765 5764 5764 5767 5769 5769 5767 5767 5768 5768 5768 5770 5766 5763 5764 5764 5764 5763 5762 5763 5759 5759 5761 5761 5757 5752 5753 5748 5747 5744 5741 5737 5733 5728 5724 5718 5715 5712 5709 5707
5767 5766 5765 5766 5765 5766 5765 5762 5761 5765 5765 5765 5765 5767 5766 5761 5759 5757 5756 5755 5753 5755 5754 5755 5756 5753 5749 5747 5748 5745 5741 5736 5734 5733 5729 5724 5717 5712 5706 5701 5697 5695 5694
5765 5764 5764 5765 5764 5763 5758 5758 5759 5762 5761 5761 5760 5760 5761 5756 5754 5753 5749 5747 5745 5743 5742 5744 5742 5735 5735 5732 5730 5733 5732 5729 5724 5716 5714 5708 5702 5694 5690 5683 5681 5681 5679
5762 5762 5762 5763 5762 5756 5752 5750 5750 5755 5754 5751 5749 5748 5748 5747 5745 5745 5745 5738 5735 5732 5733 5733 5729 5723 5720 5719 5719 5718 5717 5711 5707 5703 5701 5696 5689 5682 5678 5672 5669 5666 5666
5757 5755 5757 5754 5751 5744 5741 5741 5743 5745 5740 5737 5738 5737 5739 5738 5735 5737 5737 5729 5726 5721 5715 5714 5713 5709 5707 5707 5708 5709 5706 5706 5695 5690 5687 5684 5676 5670 5665 5662 5658 5653 5651
5747 5745 5742 5743 5739 5736 5733 5732 5733 5734 5728 5726 5726 5727 5726 5727 5725 5727 5725 5719 5713 5709 5707 5703 5701 5699 5698 5696 5694 5691 5690 5690 5685 5680 5674 5674 5665 5660 5658 5653 5646 5642 5638